Time,TemperatureF,DewpointF,PressureIn,WindDirection,WindDirectionDegrees,WindSpeedMPH,WindSpeedGustMPH,Humidity,HourlyPrecipIn,Conditions,Clouds,dailyrainin,SoftwareType,DateUTC
2013-03-07 11:08:00,34.8,27.0,29.79,North,0,0.0,0.0,73,0.00,,,0.00,WUHU216HW,2013-03-07 16:08:00,
2013-03-07 11:13:00,34.8,27.0,29.79,NNE,23,5.3,5.3,73,0.00,,,0.00,WUHU216HW,2013-03-07 16:13:00,
2013-03-07 11:18:00,34.7,27.1,29.79,North,0,0.0,5.3,74,0.04,,,0.00,WUHU216HW,2013-03-07 16:18:00,
2013-03-07 11:23:00,34.7,27.1,29.79,NNE,23,0.0,0.6,74,0.10,,,0.10,WUHU216HW,2013-03-07 16:23:00,
2013-03-07 11:28:00,34.8,27.3,29.79,NNE,23,0.0,0.0,74,0.10,,,0.10,WUHU216HW,2013-03-07 16:28:00,
2013-03-07 11:40:00,35.1,27.5,29.81,NNE,22,0.0,0.0,74,0.20,,,0.20,WUHU21623XXSP,2013-03-07 16:40:00,
2013-03-07 11:45:00,34.9,27.7,29.81,NNE,22,2.5,2.5,75,0.20,,,0.20,WUHU21623XXSP,2013-03-07 16:45:00,
2013-03-07 11:50:00,34.5,27.3,29.81,North,0,0.0,2.5,75,0.20,,,0.20,WUHU21623XXSP,2013-03-07 16:50:00,
2013-03-07 11:55:00,34.7,27.8,29.80,NE,45,3.4,3.4,76,0.20,,,0.20,WUHU21623XXSP,2013-03-07 16:55:00,
2013-03-07 12:09:00,34.5,27.6,29.80,North,0,0.0,4.0,76,0.20,,,0.20,WUHU21623XXSP,2013-03-07 17:09:00,
2013-03-07 12:14:00,34.5,27.6,29.80,WNW,292,0.0,4.0,76,0.20,,,0.20,WUHU21623XXSP,2013-03-07 17:14:00,
2013-03-07 12:20:00,34.5,27.6,29.80,NNW,337,3.4,3.4,76,0.16,,,0.20,WUHU21623XXSP,2013-03-07 17:20:00,
2013-03-07 12:25:00,34.5,27.6,29.80,North,0,0.0,3.4,76,0.10,,,0.20,WUHU21623XXSP,2013-03-07 17:25:00,
2013-03-07 12:30:00,34.7,28.1,29.80,North,0,0.0,3.1,77,0.00,,,0.20,WUHU21623XXSP,2013-03-07 17:30:00,
2013-03-07 12:35:00,34.7,27.8,29.80,NNW,337,6.7,6.7,76,0.00,,,0.20,WUHU21623XXSP,2013-03-07 17:35:00,
2013-03-07 12:40:00,34.5,28.0,29.80,North,0,0.0,6.7,77,0.00,,,0.20,WUHU21623XXSP,2013-03-07 17:40:00,
2013-03-07 12:45:00,34.3,27.8,29.80,North,0,2.2,2.2,77,0.00,,,0.20,WUHU21623XXSP,2013-03-07 17:45:00,
2013-03-07 12:50:00,34.5,28.0,29.80,North,0,4.0,4.0,77,0.00,,,0.20,WUHU21623XXSP,2013-03-07 17:50:00,
2013-03-07 12:55:00,34.5,28.0,29.79,NW,315,3.1,4.0,77,0.00,,,0.20,WUHU21623XXSP,2013-03-07 17:55:00,
2013-03-07 13:00:00,34.5,27.6,29.79,NNE,22,0.0,3.1,76,0.00,,,0.20,WUHU21623XXSP,2013-03-07 18:00:00,
2013-03-07 13:05:00,34.7,28.1,29.79,NNW,337,0.0,0.0,77,0.00,,,0.20,WUHU21623XXSP,2013-03-07 18:05:00,
2013-03-07 13:10:00,34.9,28.3,29.80,North,0,0.0,0.0,77,0.00,,,0.20,WUHU21623XXSP,2013-03-07 18:10:00,
2013-03-07 13:15:00,34.9,28.3,29.79,NNW,337,0.0,1.6,77,0.00,,,0.20,WUHU21623XXSP,2013-03-07 18:15:00,
2013-03-07 13:20:00,34.9,28.3,29.79,NNW,337,0.0,1.6,77,0.00,,,0.20,WUHU21623XXSP,2013-03-07 18:20:00,
2013-03-07 13:25:00,34.9,28.0,29.79,NW,315,0.0,0.9,76,0.00,,,0.20,WUHU21623XXSP,2013-03-07 18:25:00,
2013-03-07 13:30:00,34.9,28.0,29.79,NE,45,0.0,1.8,76,0.00,,,0.20,WUHU21623XXSP,2013-03-07 18:30:00,
2013-03-07 13:35:00,34.9,28.0,29.79,North,0,0.0,1.8,76,0.00,,,0.20,WUHU21623XXSP,2013-03-07 18:35:00,
2013-03-07 13:40:00,35.2,28.4,29.79,NE,45,2.0,2.0,76,0.00,,,0.20,WUHU21623XXSP,2013-03-07 18:40:00,
2013-03-07 13:45:00,35.4,28.4,29.79,NE,45,2.0,2.0,76,0.00,,,0.20,WUHU21623XXSP,2013-03-07 18:45:00,
2013-03-07 13:50:00,35.8,28.9,29.79,North,0,4.7,4.7,76,0.00,,,0.20,WUHU21623XXSP,2013-03-07 18:50:00,
2013-03-07 13:55:00,35.8,28.9,29.78,North,0,3.8,4.7,75,0.00,,,0.20,WUHU21623XXSP,2013-03-07 18:55:00,
2013-03-07 14:00:00,35.8,28.9,29.78,NNW,337,0.0,3.8,76,0.00,,,0.20,WUHU21623XXSP,2013-03-07 19:00:00,
2013-03-07 14:05:00,35.8,28.9,29.78,NE,45,6.3,6.3,76,0.00,,,0.20,WUHU21623XXSP,2013-03-07 19:05:00,
2013-03-07 14:10:00,35.8,28.6,29.79,NNW,337,0.0,6.3,75,0.00,,,0.20,WUHU21623XXSP,2013-03-07 19:10:00,
2013-03-07 14:15:00,35.8,28.6,29.79,NNW,337,3.6,3.6,75,0.00,,,0.20,WUHU21623XXSP,2013-03-07 19:15:00,
2013-03-07 14:20:00,35.4,28.2,29.79,NNE,22,5.6,5.6,75,0.00,,,0.20,WUHU21623XXSP,2013-03-07 19:20:00,
2013-03-07 14:25:00,35.4,28.2,29.79,NE,45,8.1,8.1,75,0.00,,,0.20,WUHU21623XXSP,2013-03-07 19:25:00,
2013-03-07 14:31:00,35.2,28.4,29.78,North,0,0.0,8.1,76,0.00,,,0.20,WUHU21623XXSP,2013-03-07 19:31:00,
2013-03-07 14:36:00,35.4,28.5,29.79,North,0,2.2,2.2,76,0.00,,,0.20,WUHU21623XXSP,2013-03-07 19:36:00,
2013-03-07 14:41:00,35.4,28.5,29.79,NNE,22,2.0,2.2,76,0.00,,,0.20,WUHU21623XXSP,2013-03-07 19:41:00,
2013-03-07 14:46:00,35.8,28.9,29.79,ENE,67,7.4,7.4,76,0.00,,,0.20,WUHU21623XXSP,2013-03-07 19:46:00,
2013-03-07 14:51:00,35.8,28.9,29.79,ESE,112,2.2,7.4,76,0.00,,,0.20,WUHU21623XXSP,2013-03-07 19:51:00,
2013-03-07 14:56:00,35.4,28.5,29.79,North,0,0.0,2.2,76,0.00,,,0.20,WUHU21623XXSP,2013-03-07 19:56:00,
2013-03-07 15:01:00,35.4,28.9,29.79,NE,45,4.0,4.0,77,0.00,,,0.20,WUHU21623XXSP,2013-03-07 20:01:00,
2013-03-07 15:06:00,35.4,28.9,29.79,North,0,0.0,4.0,77,0.00,,,0.20,WUHU21623XXSP,2013-03-07 20:06:00,
2013-03-07 15:11:00,35.4,28.9,29.79,NNE,22,0.0,2.0,77,0.00,,,0.20,WUHU21623XXSP,2013-03-07 20:11:00,
2013-03-07 15:16:00,35.2,28.7,29.79,NW,315,3.4,3.4,77,0.00,,,0.20,WUHU21623XXSP,2013-03-07 20:16:00,
2013-03-07 15:21:00,34.9,28.3,29.79,North,0,2.0,3.4,77,0.00,,,0.20,WUHU21623XXSP,2013-03-07 20:21:00,
2013-03-07 15:26:00,34.7,28.1,29.79,NNW,337,0.0,2.0,77,0.00,,,0.20,WUHU21623XXSP,2013-03-07 20:26:00,
2013-03-07 15:31:00,34.3,28.1,29.79,North,0,0.0,3.1,78,0.00,,,0.20,WUHU21623XXSP,2013-03-07 20:31:00,
2013-03-07 15:36:00,34.3,28.1,29.79,North,0,0.9,3.1,78,0.00,,,0.20,WUHU21623XXSP,2013-03-07 20:36:00,
2013-03-07 15:41:00,34.0,27.8,29.79,NNE,22,0.0,0.9,78,0.00,,,0.20,WUHU21623XXSP,2013-03-07 20:41:00,
2013-03-07 15:46:00,33.8,27.9,29.79,NNE,22,0.0,0.0,79,0.00,,,0.20,WUHU21623XXSP,2013-03-07 20:46:00,
2013-03-07 15:51:00,33.6,27.7,29.79,NNE,22,0.0,2.2,79,0.00,,,0.20,WUHU21623XXSP,2013-03-07 20:51:00,
2013-03-07 15:56:00,33.6,28.1,29.79,WSW,247,0.0,2.2,80,0.00,,,0.20,WUHU21623XXSP,2013-03-07 20:56:00,
2013-03-07 16:01:00,33.6,28.1,29.79,ENE,67,0.0,1.3,80,0.00,,,0.20,WUHU21623XXSP,2013-03-07 21:01:00,
2013-03-07 16:06:00,33.4,27.9,29.79,NNE,22,0.0,0.0,80,0.00,,,0.20,WUHU21623XXSP,2013-03-07 21:06:00,
2013-03-07 16:11:00,33.4,27.9,29.80,NNW,337,0.0,0.0,80,0.00,,,0.20,WUHU21623XXSP,2013-03-07 21:11:00,
2013-03-07 16:16:00,33.1,27.9,29.79,NNE,22,0.0,0.0,81,0.00,,,0.20,WUHU21623XXSP,2013-03-07 21:16:00,
2013-03-07 16:21:00,32.9,27.9,29.79,NNE,22,0.0,0.0,81,0.00,,,0.20,WUHU21623XXSP,2013-03-07 21:21:00,
2013-03-07 16:26:00,32.7,27.5,29.80,North,0,0.0,0.0,81,0.00,,,0.20,WUHU21623XXSP,2013-03-07 21:26:00,
2013-03-07 16:31:00,32.5,27.5,29.80,North,0,0.0,0.0,82,0.00,,,0.20,WUHU21623XXSP,2013-03-07 21:31:00,
2013-03-07 16:36:00,32.4,27.5,29.80,NNE,22,0.0,0.0,82,0.00,,,0.20,WUHU21623XXSP,2013-03-07 21:36:00,
2013-03-07 16:41:00,32.2,27.3,29.80,NNE,22,0.0,0.0,82,0.00,,,0.20,WUHU21623XXSP,2013-03-07 21:41:00,
2013-03-07 16:46:00,32.2,27.3,29.80,NE,45,0.0,0.0,82,0.00,,,0.20,WUHU21623XXSP,2013-03-07 21:46:00,
2013-03-07 16:51:00,32.0,27.2,29.80,NNE,22,0.0,0.0,82,0.00,,,0.20,WUHU21623XXSP,2013-03-07 21:51:00,
2013-03-07 16:56:00,31.8,27.3,29.81,NNE,22,0.0,0.0,83,0.00,,,0.20,WUHU21623XXSP,2013-03-07 21:56:00,
2013-03-07 17:01:00,31.8,27.3,29.80,North,0,0.0,0.0,83,0.00,,,0.20,WUHU21623XXSP,2013-03-07 22:01:00,
2013-03-07 17:06:00,31.8,27.3,29.80,NNE,22,0.0,0.0,83,0.00,,,0.20,WUHU21623XXSP,2013-03-07 22:06:00,
2013-03-07 17:11:00,31.8,27.3,29.81,NNE,22,0.0,0.0,83,0.00,,,0.20,WUHU21623XXSP,2013-03-07 22:11:00,
2013-03-07 17:16:00,31.8,27.3,29.81,North,0,0.0,0.0,83,0.00,,,0.20,WUHU21623XXSP,2013-03-07 22:16:00,
2013-03-07 17:21:00,31.6,27.1,29.81,North,0,0.0,0.0,83,0.00,,,0.20,WUHU21623XXSP,2013-03-07 22:21:00,
2013-03-07 17:26:00,31.6,27.1,29.80,North,0,0.0,0.0,83,0.00,,,0.20,WUHU21623XXSP,2013-03-07 22:26:00,
2013-03-07 17:31:00,31.6,27.4,29.80,North,0,0.0,0.0,84,0.00,,,0.20,WUHU21623XXSP,2013-03-07 22:31:00,
2013-03-07 17:36:00,31.6,27.4,29.81,North,0,0.0,0.0,84,0.00,,,0.20,WUHU21623XXSP,2013-03-07 22:36:00,
2013-03-07 17:41:00,31.5,27.2,29.81,North,0,0.0,0.0,84,0.00,,,0.20,WUHU21623XXSP,2013-03-07 22:41:00,
2013-03-07 17:46:00,31.5,27.2,29.81,North,0,0.0,0.0,84,0.00,,,0.20,WUHU21623XXSP,2013-03-07 22:46:00,
2013-03-07 17:51:00,31.3,27.0,29.81,North,0,0.0,0.0,84,0.00,,,0.20,WUHU21623XXSP,2013-03-07 22:51:00,
2013-03-07 17:56:00,31.3,27.0,29.81,North,0,0.0,0.0,84,0.00,,,0.20,WUHU21623XXSP,2013-03-07 22:56:00,
2013-03-07 18:01:00,31.3,27.0,29.81,North,0,0.0,0.0,84,0.00,,,0.20,WUHU21623XXSP,2013-03-07 23:01:00,
2013-03-07 18:06:00,31.3,27.0,29.81,North,0,0.0,0.0,84,0.00,,,0.20,WUHU21623XXSP,2013-03-07 23:06:00,
2013-03-07 18:11:00,31.3,27.0,29.81,North,0,0.0,0.0,84,0.00,,,0.20,WUHU21623XXSP,2013-03-07 23:11:00,
2013-03-07 18:16:00,31.1,26.9,29.81,North,0,0.0,0.0,84,0.00,,,0.20,WUHU21623XXSP,2013-03-07 23:16:00,
2013-03-07 18:21:00,31.1,26.9,29.81,North,0,0.0,0.0,84,0.00,,,0.20,WUHU21623XXSP,2013-03-07 23:21:00,
2013-03-07 18:26:00,31.1,26.9,29.81,North,0,0.0,0.0,84,0.00,,,0.20,WUHU21623XXSP,2013-03-07 23:26:00,
2013-03-07 18:31:00,30.9,26.7,29.81,North,0,0.0,0.0,84,0.00,,,0.20,WUHU21623XXSP,2013-03-07 23:31:00,
2013-03-07 18:36:00,30.9,26.7,29.81,North,0,0.0,0.0,84,0.00,,,0.20,WUHU21623XXSP,2013-03-07 23:36:00,
2013-03-07 18:41:00,30.9,26.7,29.80,North,0,0.0,0.0,84,0.00,,,0.20,WUHU21623XXSP,2013-03-07 23:41:00,
2013-03-07 18:46:00,30.9,26.7,29.80,North,0,0.0,0.0,84,0.00,,,0.20,WUHU21623XXSP,2013-03-07 23:46:00,
2013-03-07 18:51:00,30.9,26.7,29.80,North,0,0.0,0.0,84,0.00,,,0.20,WUHU21623XXSP,2013-03-07 23:51:00,
2013-03-07 18:56:00,30.9,27.0,29.80,North,0,0.0,0.0,85,0.00,,,0.20,WUHU21623XXSP,2013-03-07 23:56:00,
2013-03-07 19:01:00,30.7,26.8,29.81,North,0,0.0,0.0,85,0.00,,,0.20,WUHU21623XXSP,2013-03-08 00:01:00,
2013-03-07 19:06:00,30.7,26.8,29.80,North,0,0.0,0.0,85,0.00,,,0.20,WUHU21623XXSP,2013-03-08 00:06:00,
2013-03-07 19:12:00,30.7,26.8,29.80,North,0,0.0,0.0,85,0.00,,,0.20,WUHU21623XXSP,2013-03-08 00:12:00,
2013-03-07 19:17:00,30.7,26.8,29.80,North,0,0.0,0.0,85,0.00,,,0.20,WUHU21623XXSP,2013-03-08 00:17:00,
2013-03-07 19:22:00,30.7,26.8,29.80,North,0,0.0,0.0,85,0.00,,,0.20,WUHU21623XXSP,2013-03-08 00:22:00,
2013-03-07 19:27:00,30.7,26.8,29.80,North,0,0.0,0.0,85,0.00,,,0.20,WUHU21623XXSP,2013-03-08 00:27:00,
2013-03-07 19:32:00,30.7,26.8,29.80,North,0,0.0,0.0,85,0.00,,,0.20,WUHU21623XXSP,2013-03-08 00:32:00,
2013-03-07 19:37:00,30.7,26.8,29.80,North,0,0.0,0.0,85,0.00,,,0.20,WUHU21623XXSP,2013-03-08 00:37:00,
2013-03-07 19:42:00,30.7,26.8,29.80,North,0,0.0,0.0,85,0.00,,,0.20,WUHU21623XXSP,2013-03-08 00:42:00,
2013-03-07 19:47:00,30.7,26.8,29.81,North,0,0.0,0.0,85,0.00,,,0.20,WUHU21623XXSP,2013-03-08 00:47:00,
2013-03-07 19:52:00,30.7,26.8,29.81,North,0,0.0,0.0,85,0.00,,,0.20,WUHU21623XXSP,2013-03-08 00:52:00,
2013-03-07 19:57:00,30.6,26.6,29.80,North,0,0.0,0.0,85,0.00,,,0.20,WUHU21623XXSP,2013-03-08 00:57:00,
2013-03-07 20:02:00,30.7,26.8,29.80,North,0,0.0,0.0,85,0.00,,,0.20,WUHU21623XXSP,2013-03-08 01:02:00,
2013-03-07 20:07:00,30.6,26.6,29.80,North,0,0.0,0.0,85,0.00,,,0.20,WUHU21623XXSP,2013-03-08 01:07:00,
2013-03-07 20:12:00,30.6,26.6,29.80,North,0,0.0,0.0,85,0.00,,,0.20,WUHU21623XXSP,2013-03-08 01:12:00,
2013-03-07 20:17:00,30.4,26.4,29.80,North,0,0.0,0.0,85,0.00,,,0.20,WUHU21623XXSP,2013-03-08 01:17:00,
2013-03-07 20:22:00,30.4,26.4,29.80,North,0,0.0,0.0,85,0.00,,,0.20,WUHU21623XXSP,2013-03-08 01:22:00,
2013-03-07 20:27:00,30.4,26.4,29.80,North,0,0.0,0.0,85,0.00,,,0.20,WUHU21623XXSP,2013-03-08 01:27:00,
2013-03-07 20:32:00,30.4,26.4,29.80,North,0,0.0,0.0,85,0.00,,,0.20,WUHU21623XXSP,2013-03-08 01:32:00,
2013-03-07 20:37:00,30.4,26.4,29.79,North,0,0.0,0.0,85,0.00,,,0.20,WUHU21623XXSP,2013-03-08 01:37:00,
2013-03-07 20:42:00,30.2,26.2,29.80,North,0,0.0,0.0,85,0.00,,,0.20,WUHU21623XXSP,2013-03-08 01:42:00,
2013-03-07 20:47:00,30.2,26.2,29.79,North,0,0.0,0.0,85,0.00,,,0.20,WUHU21623XXSP,2013-03-08 01:47:00,
2013-03-07 20:52:00,30.4,26.7,29.79,North,0,0.0,0.0,86,0.00,,,0.20,WUHU21623XXSP,2013-03-08 01:52:00,
2013-03-07 20:57:00,30.4,26.7,29.79,North,0,0.0,0.0,86,0.00,,,0.20,WUHU21623XXSP,2013-03-08 01:57:00,
2013-03-07 21:02:00,30.4,26.7,29.80,North,0,0.0,0.0,86,0.00,,,0.20,WUHU21623XXSP,2013-03-08 02:02:00,
2013-03-07 21:07:00,30.4,26.7,29.79,North,0,0.0,0.0,86,0.00,,,0.20,WUHU21623XXSP,2013-03-08 02:07:00,
2013-03-07 21:12:00,30.2,26.5,29.79,North,0,0.0,0.0,86,0.00,,,0.20,WUHU21623XXSP,2013-03-08 02:12:00,
2013-03-07 21:17:00,30.2,26.5,29.79,North,0,0.0,0.0,86,0.00,,,0.20,WUHU21623XXSP,2013-03-08 02:17:00,
2013-03-07 21:22:00,30.2,26.2,29.79,North,0,0.0,0.0,85,0.00,,,0.20,WUHU21623XXSP,2013-03-08 02:22:00,
2013-03-07 21:27:00,30.4,26.4,29.79,North,0,0.0,0.0,85,0.00,,,0.20,WUHU21623XXSP,2013-03-08 02:27:00,
2013-03-07 21:32:00,30.4,26.4,29.78,North,0,0.0,0.0,85,0.00,,,0.20,WUHU21623XXSP,2013-03-08 02:32:00,
2013-03-07 21:37:00,30.4,26.4,29.79,North,0,0.0,0.0,85,0.00,,,0.20,WUHU21623XXSP,2013-03-08 02:37:00,
2013-03-07 21:42:00,30.4,26.4,29.79,North,0,0.0,0.0,85,0.00,,,0.20,WUHU21623XXSP,2013-03-08 02:42:00,
2013-03-07 21:47:00,30.4,26.4,29.78,North,0,0.0,0.0,85,0.00,,,0.20,WUHU21623XXSP,2013-03-08 02:47:00,
2013-03-07 21:52:00,30.4,26.4,29.78,North,0,0.0,0.0,85,0.00,,,0.20,WUHU21623XXSP,2013-03-08 02:52:00,
2013-03-07 21:57:00,30.4,26.4,29.78,North,0,0.0,0.0,85,0.00,,,0.20,WUHU21623XXSP,2013-03-08 02:57:00,
2013-03-07 22:02:00,30.4,26.4,29.78,North,0,0.0,0.0,85,0.00,,,0.20,WUHU21623XXSP,2013-03-08 03:02:00,
2013-03-07 22:07:00,30.4,26.4,29.78,North,0,0.0,0.0,85,0.00,,,0.20,WUHU21623XXSP,2013-03-08 03:07:00,
2013-03-07 22:12:00,30.4,26.4,29.78,North,0,0.0,0.0,85,0.00,,,0.20,WUHU21623XXSP,2013-03-08 03:12:00,
2013-03-07 22:17:00,30.4,26.4,29.78,North,0,0.0,0.0,85,0.00,,,0.20,WUHU21623XXSP,2013-03-08 03:17:00,
2013-03-07 22:22:00,30.2,26.4,29.78,North,0,0.0,0.0,84,0.00,,,0.20,WUHU21623XXSP,2013-03-08 03:22:00,
2013-03-07 22:27:00,30.2,26.0,29.77,North,0,0.0,0.0,84,0.00,,,0.20,WUHU21623XXSP,2013-03-08 03:27:00,
2013-03-07 22:33:00,30.2,26.2,29.77,North,0,0.0,0.0,85,0.00,,,0.20,WUHU21623XXSP,2013-03-08 03:33:00,
2013-03-07 22:38:00,30.0,26.1,29.77,North,0,0.0,0.0,85,0.00,,,0.20,WUHU21623XXSP,2013-03-08 03:38:00,
2013-03-07 22:43:00,30.0,26.1,29.77,North,0,0.0,0.0,85,0.00,,,0.20,WUHU21623XXSP,2013-03-08 03:43:00,
2013-03-07 22:48:00,30.0,26.1,29.77,North,0,0.0,0.0,85,0.00,,,0.20,WUHU21623XXSP,2013-03-08 03:48:00,
2013-03-07 22:53:00,30.0,26.1,29.77,North,0,0.0,0.0,85,0.00,,,0.20,WUHU21623XXSP,2013-03-08 03:53:00,
2013-03-07 22:58:00,30.0,26.1,29.77,North,0,0.0,0.0,85,0.00,,,0.20,WUHU21623XXSP,2013-03-08 03:58:00,
2013-03-07 23:03:00,30.0,26.1,29.77,North,0,0.0,0.0,85,0.00,,,0.20,WUHU21623XXSP,2013-03-08 04:03:00,
2013-03-07 23:08:00,30.0,26.1,29.77,North,0,0.0,0.0,85,0.00,,,0.20,WUHU21623XXSP,2013-03-08 04:08:00,
2013-03-07 23:13:00,30.0,26.1,29.77,North,0,0.0,0.0,85,0.00,,,0.20,WUHU21623XXSP,2013-03-08 04:13:00,
2013-03-07 23:18:00,29.8,25.9,29.77,North,0,0.0,0.0,85,0.00,,,0.20,WUHU21623XXSP,2013-03-08 04:18:00,
2013-03-07 23:23:00,29.8,25.9,29.77,North,0,0.0,0.0,85,0.00,,,0.20,WUHU21623XXSP,2013-03-08 04:23:00,
2013-03-07 23:28:00,29.8,25.9,29.76,North,0,0.0,0.0,85,0.00,,,0.20,WUHU21623XXSP,2013-03-08 04:28:00,
2013-03-07 23:33:00,29.8,25.9,29.77,North,0,0.0,0.0,85,0.00,,,0.20,WUHU21623XXSP,2013-03-08 04:33:00,
2013-03-07 23:38:00,29.8,25.9,29.76,North,0,0.0,0.0,85,0.00,,,0.20,WUHU21623XXSP,2013-03-08 04:38:00,
2013-03-07 23:43:00,29.8,25.9,29.76,North,0,0.0,0.0,85,0.00,,,0.20,WUHU21623XXSP,2013-03-08 04:43:00,
2013-03-07 23:48:00,29.8,25.9,29.76,North,0,0.0,0.0,85,0.00,,,0.20,WUHU21623XXSP,2013-03-08 04:48:00,
2013-03-07 23:53:00,29.8,25.9,29.76,North,0,0.0,0.0,85,0.00,,,0.20,WUHU21623XXSP,2013-03-08 04:53:00,
2013-03-07 23:58:00,29.8,25.9,29.76,North,0,0.0,0.0,85,0.00,,,0.20,WUHU21623XXSP,2013-03-08 04:58:00,